This is the latest recevied weather packets stored in our database for station/object SV9TNF-2. If no packets are shown the sender has not sent any weather packets the latest 10 day(s).
| Time | Temp. | Humidity | Pressure | Rain* | Wind** | Luminosity | Snow |
|---|---|---|---|---|---|---|---|
| 1777728650 | 15° C | 55% | 1021.7 hPa | 0 mm | 7.15 m/s, 90° | - | - |
| 1777728350 | 15.56° C | 55% | 1021.7 hPa | 0 mm | 7.15 m/s, 73° | - | - |
| 1777728050 | 15.56° C | 50% | 1022 hPa | 0 mm | 5.81 m/s, 90° | - | - |
| 1777727750 | 15.56° C | 51% | 1022 hPa | 0 mm | 8.94 m/s, 92° | - | - |
| 1777727450 | 15.56° C | 49% | 1022 hPa | 0 mm | 6.71 m/s, 93° | - | - |
| 1777727150 | 15.56° C | 53% | 1022 hPa | 0 mm | 8.94 m/s, 117° | - | - |
| 1777726850 | 15.56° C | 53% | 1022 hPa | 0 mm | 10.73 m/s, 81° | - | - |
| 1777726549 | 15.56° C | 54% | 1022 hPa | 0 mm | 9.83 m/s, 119° | - | - |
| 1777726249 | 15.56° C | 50% | 1022 hPa | 0 mm | 8.94 m/s, 85° | - | - |
| 1777725950 | 16.11° C | 51% | 1022 hPa | 0 mm | 9.83 m/s, 66° | - | - |
| 1777725649 | 16.67° C | 52% | 1022 hPa | 0 mm | 10.28 m/s, 73° | - | - |
| 1777725349 | 16.67° C | 52% | 1022 hPa | 0 mm | 9.39 m/s, 66° | - | - |
| 1777725049 | 16.11° C | 51% | 1022 hPa | 0 mm | 11.18 m/s, 106° | - | - |
| 1777724749 | 16.11° C | 48% | 1022 hPa | 0 mm | 11.18 m/s, 90° | - | - |
| 1777724449 | 16.11° C | 47% | 1022 hPa | 0 mm | 11.18 m/s, 89° | - | - |
| 1777724149 | 16.11° C | 48% | 1022 hPa | 0 mm | 9.83 m/s, 25° | - | - |
| 1777723849 | 16.11° C | 51% | 1022 hPa | 0 mm | 9.83 m/s, 96° | - | - |
| 1777723550 | 16.11° C | 50% | 1022 hPa | 0 mm | 11.62 m/s, 88° | - | - |
| 1777723249 | 16.67° C | 50% | 1022 hPa | 0 mm | 12.52 m/s, 66° | - | - |
| 1777722948 | 16.67° C | 48% | 1022 hPa | 0 mm | 10.28 m/s, 113° | - | - |
| 1777722648 | 16.67° C | 50% | 1022 hPa | 0 mm | 11.18 m/s, 59° | - | - |
| 1777722348 | 16.67° C | 45% | 1022.4 hPa | 0 mm | 10.28 m/s, 102° | - | - |
| 1777722048 | 16.67° C | 51% | 1022.4 hPa | 0 mm | 10.28 m/s, 49° | - | - |
| 1777721748 | 16.11° C | 50% | 1022.4 hPa | 0 mm | 12.07 m/s, 39° | - | - |
| 1777721448 | 16.67° C | 55% | 1022.4 hPa | 0 mm | 10.73 m/s, 66° | - | - |
* Rain latest hour (hover to see other rain measurements)
** Current wind speed in m/s (hover to see current wind gust speed)